Regional Weather Roundup
Issued by NWS

Home | Current Version | Previous Version | Graphics & Text | Print | Product List | Glossary On
Versions: 1 2 3 4 5 6 7 8 9 10 11 12 13 14 15 16 17 18 19 20 21 22 23 24 25 26 27 28 29 30 31 32 33 34 35 36 37 38 39 40 41 42 43 44 45 46 47 48 49 50
000
ASUS43 KMPX 261301
RWRMN
WEATHER ROUNDUP FOR MINNESOTA
NATIONAL WEATHER SERVICE TWIN CITIES/CHANHASSEN MN
800 AM CDT THU MAR 26 2015


NOTE: "FAIR" INDICATES FEW OR NO CLOUDS BELOW 12,000 FEET WITH NO
SIGNIFICANT WEATHER AND/OR OBSTRUCTIONS TO VISIBILITY. N/A MEANS
CURRENT SKY AND/OR WEATHER CONDITIONS ARE NOT AVAILABLE.

MNZ060>063-068>070-261400-
   Twin Cities Metro

CITY           SKY/WX    TMP DP  RH WIND       PRES   REMARKS
TWIN CITIES    CLOUDY    28  20  71 NW12      30.09R WCI  18
ST PAUL        CLOUDY    30  20  66 NW13      30.09R WCI  20
CRYSTAL        CLOUDY    29  20  69 NW10      30.08R WCI  20
BLAINE         MOCLDY    30  21  69 NW17G23   30.08R WCI  18
LAKEVILLE      PTCLDY    23  19  86 NW9       30.09R WCI  13
EDEN PRAIRIE   MOCLDY    27  19  72 NW10      30.09R WCI  17
SOUTH ST PAUL  CLOUDY    30  20  66 NW9       30.08R WCI  22
LAKE ELMO      CLOUDY    30  21  69 NW17G24   30.07S WCI  18
$$
MNZ001>005-007-008-013>017-022>024-027-028-261400-
   Northwest Minnesota

CITY           SKY/WX    TMP DP  RH WIND       PRES   REMARKS
BEMIDJI        FLURRIES  21  14  73 N9        30.14R WCI  11
HALLOCK        CLEAR     19  12  73 N6        30.25R WCI  11
ROSEAU         CLEAR     18  10  73 N7        30.22R WCI   8
WARROAD        FAIR      16  12  86 NW6       30.22R WCI   7
THIEF RVR FALL CLOUDY    21  12  68 N13       30.21R WCI   9
CROOKSTON      FLURRIES  23  19  86 N14       30.23R WCI  11
FOSSTON        FLURRIES  21  18  86 N14       30.18R WCI   8
DETROIT LAKES  PTCLDY    21  19  93 NW9       30.16S WCI  11
MOORHEAD       CLEAR     21  21 100 N9        30.22R WCI  11
PARK RAPIDS    CLOUDY    24  15  68 N15       30.11R WCI  11
MAHNOMEN       CLOUDY    22  18  84 NW13      30.17R WCI  10
$$
MNZ006-009>011-018-025>026-261400-
   North Central Minnesota

CITY           SKY/WX    TMP DP  RH WIND       PRES   REMARKS
BAUDETTE       LGT SNOW  19  13  77 NW14      30.17R WCI   6
FLAG ISLAND    CLEAR     16   9  73 N12       30.20R WCI   3
INTL FALLS     CLOUDY    15   5  64 N12G18    30.16R WCI   2
WASKISH        CLOUDY    19  12  73 CALM      30.16S
BIG FORK       FLURRIES  18  10  73 N7        30.14R WCI   8
LONGVILLE      CLOUDY    21  14  73 NW9G16    30.12R WCI  11
GRAND RAPIDS   CLOUDY    21  10  63 N13       30.09R WCI   9
CRANE LAKE     CLOUDY    12   7  79 NW8       30.15R WCI   1
ORR            LGT SNOW  16   9  73 NW7       30.09R WCI   6
COOK           FLURRIES  18  10  73 NW9G16    30.10R WCI   6
WALKER         CLOUDY    23  15  71 N10G17    30.11R WCI  12
$$
MNZ012-019>021-037-261400-
   Northeast Minnesota

CITY           SKY/WX    TMP DP  RH WIND       PRES   REMARKS
DULUTH         FLURRIES  22  12  65 N14G24    30.04R WCI   9
ELY            FLURRIES  16  10  79 NW9G16    30.06R WCI   4
HIBBING        MOCLDY    18   7  62 NW18      30.09R WCI   2
EVELETH        FLURRIES  21  14  73 N6        30.07S WCI  14
DULUTH HARBOR  CLOUDY    25  16  68 CALM      30.10R
TWO HARBORS    CLOUDY    23  14  68 N7        30.03R WCI  15
SILVER BAY     MOCLDY    19  10  68 NW9G18    30.03R WCI   9
GRAND MARAIS     N/A     19   8  62 VRB5      30.06R WCI  12
G MARAIS ARPRT LGT SNOW  10   3  72 NW12G21   29.95R WCI  -4
$$
MNZ029>031-032-039>041-046>048-054>057-064-261400-
   West Central Minnesota

CITY           SKY/WX    TMP DP  RH WIND       PRES   REMARKS
FERGUS FALLS   MOCLDY    21  16  79 N8        30.21R WCI  12
WHEATON        MOCLDY    21  19  93 N7        30.22R WCI  13
MORRIS         CLEAR     25  19  80 N10       30.17R WCI  15
ALEXANDRIA     CLEAR     22  16  78 NW10      30.15R WCI  11
ELBOW LAKE     FAIR      21  18  86 N9        30.17R WCI  11
WADENA         CLOUDY    19  16  86 W8        30.13R WCI   9
GLENWOOD       CLEAR     21  18  86 NW13      30.14S WCI   9
APPLETON       CLEAR     27  23  86 N9        30.19R WCI  17
BENSON         CLEAR     25  19  80 N7        30.17R WCI  17
ORTONVILLE     MOCLDY    27  21  80 NW6       30.20R WCI  20
MADISON        PTCLDY    27  23  86 NW7       30.21R WCI  19
WILLMAR        FAIR      19  16  86 NW7       30.17R WCI  10
$$
MNZ033>034-036-042>043-049>051-058-059-261400-
   Central Minnesota

CITY           SKY/WX    TMP DP  RH WIND       PRES   REMARKS
ST CLOUD       CLOUDY    25  18  74 NW13      30.10R WCI  14
SAUK CENTRE    FAIR      21  17  84 NW8       30.14R WCI  12
PAYNESVILLE    CLEAR     20  16  84 W7        30.14R WCI  11
AITKIN         CLOUDY    28  18  64 N15       30.08R WCI  17
PINE RIVER     CLOUDY    25  18  74 N8        30.14R WCI  16
BRAINERD       CLOUDY    26  18  71 N14       30.10R WCI  14
STAPLES        CLOUDY    21  18  86 NW8       30.12R WCI  12
LONG PRAIRIE   MOCLDY    21  18  86 NW9       30.13R WCI  11
LITTLE FALLS   CLOUDY    27  19  74 NW6       30.11S WCI  20
LITCHFIELD     CLEAR     25  19  80 NW12G18   30.13R WCI  14
MAPLE LAKE     CLOUDY    26  21  80 NW9G16    30.11R WCI  17
$$
MNZ037-044-045-052-053-261400-
   East Central Minnesota

CITY           SKY/WX    TMP DP  RH WIND       PRES   REMARKS
PRINCETON      CLOUDY    28  18  64 N9        30.10R WCI  20
MORA           CLOUDY    28  18  64 N6        30.09R WCI  22
CAMBRIDGE      CLOUDY    30  19  64 NW9G16    30.07R WCI  22
RUSH CITY      CLOUDY    28  16  60 N14G20    30.08R WCI  17
MOOSE LAKE     CLOUDY    27  18  69 CALM      30.06R
HINCKLEY       CLOUDY    28  19  69 N13G18    30.07R WCI  18
CLOQUET        FLURRIES  23  12  63 NW17      30.06R WCI   9
MCGREGOR       CLOUDY    27  19  74 N10       30.08R WCI  17
$$
MNZ071>073-080-081-089-090-097-098-261400-
   Southwest Minnesota

CITY           SKY/WX    TMP DP  RH WIND       PRES   REMARKS
MONTEVIDEO     CLEAR     27  23  86 N6        30.20R WCI  20
GRANITE FALLS  CLEAR     26  22  85 NW7       30.20R WCI  18
CANBY          CLOUDY    27  24  88 NW6       30.21R WCI  21
MARSHALL       CLEAR     27  19  74 NW10      30.19R WCI  17
REDWOOD FALLS  CLEAR     28  21  75 NW8       30.16R WCI  20
OLIVIA         CLEAR     25  21  86 NW10      30.15R WCI  15
PIPESTONE      CLEAR     27  21  80 NW8       30.16R WCI  18
WINDOM         CLEAR     27  25  93 W8        30.15R WCI  18
WORTHINGTON    MOCLDY    28  21  74 NW8       30.16R WCI  20
JACKSON        CLEAR     30  23  74 NW9       30.14R WCI  22
TRACY          CLEAR     27  24  87 NW8       30.17R WCI  19
SLAYTON        MOCLDY    27  24  85 CALM      30.16R
$$
MNZ065>067-074>077-082>085-091>093-261400-
   South Central Minnesota

CITY           SKY/WX    TMP DP  RH WIND       PRES   REMARKS
MANKATO        CLEAR     25  18  74 NW15      30.11R WCI  12
NEW ULM        CLEAR     27  19  74 NW15      30.13R WCI  15
ST JAMES       CLEAR     28  25  86 NW12      30.15R WCI  18
FAIRMONT       CLEAR     28  21  74 NW13      30.12S WCI  18
GLENCOE        CLEAR     25  20  82 W13       30.11R WCI  13
FARIBAULT      CLEAR     27  19  74 W9        30.09R WCI  17
OWATONNA       CLEAR     23  18  80 NW13      30.08S WCI  11
WASECA         CLEAR     25  19  80 NW12G17   30.11R WCI  14
ALBERT LEA     CLEAR     28  23  80 NW8G16    30.08R WCI  20
$$
MNZ078>079-086>088-094>096-261400-
   Southeast Minnesota

CITY           SKY/WX    TMP DP  RH WIND       PRES   REMARKS
ROCHESTER      CLEAR     24  18  77 NW16      30.05R WCI  11
RED WING       CLOUDY    30  19  64 NW8G20    30.06R WCI  23
STANTON        PTCLDY    23  18  80 W12       30.07R WCI  12
DODGE CENTER   CLEAR     25  19  80 NW14G20   30.06R WCI  13
WINONA         CLOUDY    34  23  64 NW9       30.05R WCI  26
AUSTIN         CLEAR     27  19  74 NW10      30.07R WCI  17
PRESTON        MOCLDY    24  19  80 NW13      30.05R WCI  12
$$
ABBREVIATIONS USED IN REMARKS
   TC - TEMPERATURES IN CELSIUS
  WCI - WIND CHILL INDEX
   HX - HEAT INDEX
  VSB - VISIBILITY
$$



USA.gov is the U.S. government's official web portal to all federal, state and local government web resources and services.